GFSFLT1_sfc_temp_132.txt.gz
Temp
80 80 80 79 79 79 79 78 79 78 78 78 78 77 77 75 71 71 75 74 80 80 79 78 79 79 79 79 80 80 79 79 79
80 79 79 79 80 79 79 79 78 78 78 78 77 77 75 70 70 70 73 75 80 80 79 79 79 79 78 78 79 79 79 79 79
79 79 79 79 79 79 79 79 79 78 77 77 76 75 74 71 70 70 73 77 79 80 79 79 78 78 78 78 78 79 79 78 78
78 78 79 79 79 79 78 78 78 77 77 76 76 75 73 68 69 73 73 78 79 78 78 78 78 78 78 78 78 78 78 77 77
78 78 78 78 79 78 78 78 77 76 76 75 75 73 71 66 68 71 74 76 78 78 78 78 77 76 76 76 77 77 77 77 76
72 75 77 78 78 77 78 77 76 75 74 74 72 69 64 67 68 72 76 77 77 77 76 76 76 76 76 76 75 75 75 75 75
71 74 77 77 77 77 77 76 73 67 62 65 67 62 63 64 65 72 76 77 77 76 76 75 75 75 75 75 75 74 74 74 74
67 68 66 66 71 65 66 62 60 59 61 60 60 61 61 61 64 73 75 76 76 76 75 75 75 75 75 75 74 74 74 74 74
64 66 61 60 66 59 59 58 58 58 58 58 58 59 59 60 62 72 74 75 76 76 75 75 74 74 74 74 74 74 74 73 73
62 60 58 58 62 59 57 58 59 57 57 58 58 58 58 60 61 64 73 74 75 75 75 75 74 74 74 73 73 73 73 73 73
62 59 58 58 59 57 59 60 58 56 57 57 58 57 58 58 60 61 66 73 74 75 75 75 74 74 73 73 73 72 72 72 72
62 60 59 57 57 58 58 57 57 57 58 55 56 57 56 58 58 59 60 63 72 73 74 74 74 73 73 73 72 72 72 72 71
62 60 59 57 58 59 61 60 55 55 55 54 55 55 56 56 57 58 58 59 60 68 72 73 73 73 73 72 72 71 71 71 71
63 61 59 58 58 59 61 56 59 56 54 55 53 53 54 55 59 56 58 58 58 59 70 71 72 72 73 72 72 71 71 70 70
65 61 59 58 57 56 58 58 54 56 56 59 53 51 52 53 53 54 57 56 56 56 57 57 62 71 72 72 72 71 70 70 70
62 61 57 56 58 58 59 56 57 53 53 52 51 52 52 52 51 52 52 54 54 55 55 55 56 61 70 70 71 71 70 70 69
61 61 57 56 55 56 58 58 53 52 53 52 50 48 52 52 54 53 53 52 52 54 55 54 55 54 55 60 67 68 69 69 68
63 62 60 56 57 57 57 57 55 52 52 54 53 46 47 51 54 53 52 51 50 51 52 53 54 53 53 58 61 65 66 67 67
58 60 57 56 54 55 57 58 56 57 55 54 56 53 55 53 51 54 54 54 55 53 52 54 53 52 52 57 59 64 65 65 65
54 56 59 55 53 55 56 55 54 54 53 54 54 55 55 55 54 50 52 52 51 54 54 51 51 51 51 51 55 62 64 63 63

GFSFLT1_sfc_temp_135.txt.gz
Temp
81 80 80 80 79 79 79 79 79 78 79 79 79 78 77 79 82 82 81 82 80 80 79 79 79 79 79 79 79 79 79 79 79
80 80 79 79 79 79 79 79 79 78 78 78 78 77 77 81 81 81 81 81 80 80 79 79 79 79 79 79 79 79 79 79 79
80 80 80 81 79 79 79 78 78 78 78 77 77 75 77 81 80 81 80 78 80 80 79 78 78 78 78 78 78 79 79 78 78
79 79 80 79 78 79 79 78 78 77 77 77 76 75 75 80 81 82 82 78 79 79 78 77 78 78 78 78 77 78 78 78 77
78 79 79 79 79 78 79 77 77 77 76 76 75 74 76 79 79 81 79 78 79 78 77 77 77 77 77 77 77 77 77 77 77
80 78 78 79 77 78 77 77 76 75 75 74 73 75 79 80 80 79 77 77 78 77 77 76 76 76 76 76 76 76 75 75 75
80 78 77 77 77 77 77 75 72 74 77 76 74 78 79 79 79 79 76 77 77 77 76 76 76 76 76 75 75 75 75 74 74
79 79 79 79 77 79 76 73 75 74 75 75 77 78 78 79 79 76 75 76 76 76 75 75 75 75 75 75 75 75 74 74 74
76 77 75 76 76 74 74 73 73 73 75 77 77 77 77 78 79 76 75 76 76 76 76 75 75 74 74 74 74 74 74 74 73
72 71 72 73 74 74 72 73 72 73 74 76 76 76 76 77 77 77 74 75 75 75 75 75 75 74 74 74 73 73 73 73 73
71 70 71 71 73 72 72 72 71 71 74 73 74 74 75 76 76 77 76 74 74 75 75 75 75 74 74 73 73 73 73 72 72
71 69 70 71 73 72 71 71 71 70 71 71 73 73 74 75 74 74 75 75 72 74 74 74 74 74 74 73 72 72 72 72 72
69 68 68 68 69 70 70 69 68 68 69 69 69 70 71 72 73 73 73 74 75 73 73 74 74 74 73 73 72 72 72 71 71
69 68 66 67 67 69 69 68 69 67 67 67 67 68 68 70 71 72 71 70 71 74 71 71 72 73 73 73 72 71 71 71 70
69 67 65 66 67 66 68 68 69 68 67 66 65 66 66 68 69 71 70 69 69 71 71 73 73 72 72 72 72 72 71 70 70
68 66 65 66 66 67 69 67 65 64 66 64 63 64 67 68 68 69 70 68 69 70 71 72 73 73 70 71 72 72 71 70 70
65 65 65 64 65 66 66 65 65 64 67 65 64 60 64 67 68 69 67 66 67 69 69 71 71 70 71 69 67 68 70 70 69
63 66 64 67 67 65 66 66 66 63 63 68 66 59 60 63 65 65 65 65 63 65 64 67 68 69 70 68 67 66 67 68 68
60 61 64 61 66 66 66 68 68 66 63 64 66 67 68 63 56 60 60 66 62 61 65 67 68 65 67 63 62 64 65 65 66
58 60 60 61 65 67 68 67 67 69 67 66 64 62 61 65 60 54 54 55 59 58 63 66 63 66 65 65 63 62 64 64 64

GFSFLT1_sfc_temp_138.txt.gz
Temp
80 81 80 80 79 80 79 79 80 79 79 79 79 80 81 82 87 86 84 83 80 79 79 79 79 79 79 79 79 79 79 79 79
80 80 79 79 79 79 79 79 79 79 78 78 78 79 80 83 83 83 84 82 80 80 79 79 79 78 79 79 79 79 79 79 79
80 79 79 79 79 79 79 78 78 78 78 77 78 79 80 84 84 83 81 79 79 79 79 78 78 78 78 78 79 79 78 78 78
80 80 80 79 79 79 78 78 78 78 77 77 77 78 78 87 87 85 82 77 78 78 78 78 78 77 78 78 78 78 78 78 77
79 79 79 78 79 78 78 78 77 77 77 76 77 77 79 86 84 83 79 78 78 78 77 77 77 77 77 77 77 77 77 76 76
82 80 78 78 78 78 77 77 76 75 75 75 76 78 86 86 84 82 77 77 78 77 77 77 76 76 76 76 76 76 75 75 75
86 80 77 77 78 77 77 76 75 79 83 81 78 85 85 85 83 80 76 77 77 77 76 76 76 76 76 75 75 75 75 74 74
85 83 81 81 78 80 80 78 84 83 84 83 85 85 86 85 83 77 75 76 76 76 76 75 75 75 75 75 75 75 74 74 74
83 83 82 82 85 81 82 82 81 82 83 85 84 85 85 84 82 77 75 76 76 76 75 75 75 75 75 74 74 74 74 74 74
79 82 82 81 83 82 81 80 81 82 83 84 84 84 85 84 82 79 74 75 75 76 76 75 75 74 74 74 74 73 73 73 73
78 79 80 80 80 79 78 78 78 79 81 81 82 82 82 83 81 80 77 74 75 75 75 75 75 74 74 73 73 73 72 72 72
77 79 76 78 82 81 81 80 80 79 80 79 80 80 81 81 81 80 79 77 72 74 74 74 74 74 74 73 73 72 72 72 72
76 78 75 80 80 80 78 78 77 77 78 78 78 78 79 80 79 79 79 79 78 73 73 74 74 74 73 73 72 72 72 71 71
74 71 76 77 78 78 77 77 76 73 76 76 77 78 78 78 79 78 77 76 78 77 71 72 72 73 73 73 72 72 71 71 71
72 70 75 75 76 74 76 75 77 75 75 75 75 76 76 77 78 78 78 75 75 76 76 76 74 72 72 73 72 72 71 71 70
71 71 75 75 74 74 75 74 73 72 76 72 71 73 76 76 75 77 77 74 76 76 76 78 78 74 70 70 71 72 71 70 70
69 72 74 73 74 73 73 72 70 72 74 71 71 65 69 74 75 76 76 76 76 76 77 78 76 76 75 70 67 68 70 70 69
71 71 69 70 73 72 72 73 72 69 73 77 74 66 66 69 73 74 75 74 73 75 75 74 75 76 76 70 68 66 67 68 68
67 72 74 71 74 74 73 74 73 72 69 73 75 77 77 68 64 71 72 71 72 70 70 73 74 75 74 66 63 64 65 66 66
58 66 71 73 76 76 75 74 75 75 73 72 72 72 73 76 71 66 67 69 69 63 66 72 71 73 72 72 67 63 64 64 64

GFSFLT1_sfc_temp_144.txt.gz
Temp
80 80 80 79 80 79 79 79 79 79 80 80 81 81 81 79 77 76 76 76 79 79 79 78 78 79 79 79 79 79 79 79 79
80 80 79 79 79 79 79 80 79 79 80 80 80 80 79 76 75 75 75 77 79 79 79 79 79 78 78 78 79 79 79 78 78
79 79 79 79 79 79 79 78 79 79 79 80 80 80 79 77 74 74 74 77 79 79 78 78 78 78 78 78 78 78 78 78 78
79 79 79 79 78 78 78 78 78 78 79 79 81 79 78 75 77 76 73 77 78 78 78 77 77 77 77 77 77 77 77 77 77
78 78 79 78 78 78 78 78 78 78 79 78 78 78 77 74 74 76 76 78 78 78 78 77 77 76 76 76 77 76 76 76 76
76 77 78 78 78 78 77 78 76 77 77 78 78 78 76 73 75 75 77 77 78 77 77 77 76 76 76 76 76 75 75 75 75
78 76 76 77 77 77 77 76 76 77 73 75 76 77 74 72 74 75 76 77 77 77 76 76 76 76 76 76 75 75 75 74 74
70 71 72 69 74 73 72 72 72 71 75 74 76 76 73 72 74 74 76 76 76 76 76 75 75 75 75 75 75 75 74 74 74
67 68 70 68 68 70 70 69 71 76 76 76 75 74 71 70 69 73 75 76 76 76 76 75 75 75 74 74 74 74 74 74 73
64 65 68 70 70 73 70 70 71 72 72 77 78 74 71 69 73 70 74 75 75 76 76 75 75 74 74 74 73 73 73 73 73
64 63 66 67 70 73 71 70 69 71 75 72 77 75 71 70 66 66 72 74 75 75 75 75 75 74 74 73 73 73 72 72 72
65 66 66 67 74 72 71 69 69 69 71 69 71 73 71 70 68 68 66 67 72 74 74 74 74 74 74 73 73 72 72 72 72
65 68 66 67 73 72 68 67 67 67 68 68 68 69 73 71 70 69 66 64 66 70 73 74 74 74 73 73 72 72 72 72 71
67 70 68 68 72 72 72 67 67 66 65 68 67 67 67 69 71 67 66 65 64 63 71 71 72 73 73 73 72 72 71 71 71
68 66 67 68 68 69 70 68 67 65 65 72 66 64 64 66 65 66 69 66 64 63 63 62 66 72 73 73 72 72 71 71 70
67 67 66 69 69 68 70 67 65 64 65 62 60 62 64 64 64 64 64 65 64 63 62 61 61 65 71 72 72 72 71 71 70
67 68 66 69 68 69 68 66 62 63 63 58 57 53 58 61 65 62 65 62 63 64 65 63 61 60 58 61 68 70 71 70 70
68 67 67 68 69 68 67 65 64 61 60 63 58 54 53 56 59 60 61 61 61 60 63 64 65 61 58 61 63 66 68 69 69
65 67 66 67 67 68 67 67 65 64 59 63 67 62 60 53 52 57 59 60 62 59 60 60 61 60 58 62 62 66 66 66 67
62 63 67 68 66 69 69 67 66 64 61 60 59 60 60 59 55 50 53 57 57 57 56 56 55 57 57 57 61 65 65 65 65

GFSFLT1_sfc_temp_147.txt.gz
Temp
80 80 80 80 79 79 79 79 80 80 80 79 79 79 78 76 73 73 76 76 80 80 78 78 78 79 79 79 79 79 79 79 78
80 80 80 79 79 79 79 80 80 80 80 79 79 78 76 73 72 72 75 76 79 80 79 78 78 79 79 79 79 79 78 78 78
79 79 79 79 79 79 80 79 80 80 79 79 79 77 76 74 71 72 74 77 78 78 78 78 78 78 78 78 78 78 78 78 77
79 79 79 78 79 78 78 78 79 80 79 79 77 76 75 71 72 74 73 76 77 77 77 77 77 77 78 78 78 77 77 77 77
78 78 78 78 78 78 79 78 79 79 79 78 77 76 74 71 75 76 77 78 78 77 76 76 76 76 76 76 76 77 76 76 76
73 75 77 78 78 78 78 78 78 77 78 77 75 74 71 71 74 75 76 77 78 77 77 77 76 76 76 76 75 75 75 74 74
74 74 76 77 77 77 77 78 77 75 73 75 74 71 69 72 74 75 76 77 77 77 76 76 76 76 76 75 75 75 75 75 74
66 67 69 69 73 72 73 72 70 69 75 73 72 70 69 73 74 75 76 76 77 76 76 75 75 75 75 75 75 74 74 74 74
64 65 65 66 67 67 66 67 70 70 76 72 70 68 68 68 74 73 75 76 76 76 76 75 75 75 75 74 74 74 74 74 73
64 64 64 65 66 66 65 66 67 73 75 72 69 68 64 64 67 73 74 75 75 76 76 75 75 74 74 74 74 73 73 73 73
64 64 64 65 67 67 68 68 68 67 75 71 69 68 66 63 63 71 70 74 75 75 75 75 75 74 74 73 73 73 72 72 72
64 63 63 64 66 69 68 67 66 69 73 69 68 67 65 63 62 63 63 66 72 74 74 74 74 74 74 73 72 72 72 72 72
64 65 63 66 65 65 70 67 65 67 68 68 68 67 67 64 63 64 63 62 64 70 73 74 74 73 73 73 72 72 72 71 71
64 66 65 67 65 62 69 64 66 65 66 67 66 67 66 65 67 62 63 63 62 62 71 72 72 73 73 73 72 72 71 71 71
64 65 66 66 64 64 66 66 64 63 65 69 65 67 64 63 64 61 65 62 62 61 62 61 66 72 73 72 72 72 71 71 70
65 65 65 65 62 68 68 64 64 62 64 60 58 58 60 61 63 63 60 60 61 60 60 59 60 64 71 72 72 72 72 71 70
66 66 65 65 69 68 67 66 62 59 61 58 55 54 56 59 60 60 63 59 60 61 61 59 58 58 58 62 69 70 71 71 70
66 67 65 66 71 69 68 66 66 59 58 64 55 51 50 54 57 57 59 59 57 57 59 59 59 57 56 61 63 67 69 69 69
67 68 66 67 70 68 68 67 65 63 62 58 63 58 57 52 51 54 55 56 58 56 56 56 57 56 55 60 62 66 66 67 68
63 66 65 63 64 69 70 66 67 65 61 58 58 56 56 55 52 50 51 53 52 52 52 52 52 53 54 55 59 65 65 65 66